• In Hungary
  • List of Countries
  • For 7 days
  • Water Temperature
  • Satellite Maps
  • Weather Map
  • News
  • Weather Widgets
  • user-avatar
    Login

    Hourly Weather Córdoba

    Today, 20 July, Friday

    Time Temperature Precipitation Wind Pressure Humidity
    00:00 +7°C° 0 mm 3 mps 727 mmHg 46%
    01:00 +6°C° 0 mm 4 mps 727 mmHg 48%
    02:00 +6°C° 0 mm 4 mps 727 mmHg 49%
    03:00 +5°C° 0 mm 4 mps 727 mmHg 52%
    04:00 +5°C° 0 mm 4 mps 727 mmHg 54%
    05:00 +4°C° 0 mm 4 mps 727 mmHg 56%
    06:00 +5°C° 0 mm 3 mps 728 mmHg 56%
    07:00 +5°C° 0 mm 3 mps 728 mmHg 55%
    08:00 +5°C° 0 mm 3 mps 729 mmHg 55%
    09:00 +7°C° 0 mm 4 mps 729 mmHg 48%
    10:00 +9°C° 0 mm 5 mps 730 mmHg 40%
    11:00 +10°C° 0 mm 6 mps 730 mmHg 32%
    12:00 +11°C° 0 mm 6 mps 730 mmHg 30%
    13:00 +13°C° 0 mm 5 mps 730 mmHg 27%
    14:00 +14°C° 0 mm 5 mps 729 mmHg 25%
    15:00 +13°C° 0 mm 4 mps 729 mmHg 26%
    16:00 +13°C° 0 mm 3 mps 729 mmHg 27%
    17:00 +13°C° 0 mm 2 mps 728 mmHg 29%
    18:00 +12°C° 0 mm 2 mps 728 mmHg 32%
    19:00 +10°C° 0 mm 1 mps 729 mmHg 34%
    20:00 +9°C° 0 mm 1 mps 729 mmHg 37%
    21:00 +8°C° 0 mm 1 mps 729 mmHg 38%
    22:00 +8°C° 0 mm 1 mps 729 mmHg 39%
    23:00 +7°C° 0 mm 2 mps 729 mmHg 39%

    Tomorrow, 21 July, Saturday

    Time Temperature Precipitation Wind Pressure Humidity
    00:00 +7°C° 0 mm 2 mps 729 mmHg 40%
    01:00 +6°C° 0 mm 2 mps 729 mmHg 40%
    02:00 +6°C° 0 mm 2 mps 729 mmHg 40%
    03:00 +6°C° 0 mm 2 mps 728 mmHg 40%
    04:00 +6°C° 0 mm 2 mps 728 mmHg 39%
    05:00 +6°C° 0 mm 2 mps 727 mmHg 39%
    06:00 +6°C° 0 mm 2 mps 728 mmHg 37%
    07:00 +7°C° 0 mm 3 mps 728 mmHg 36%
    08:00 +7°C° 0 mm 3 mps 728 mmHg 35%
    09:00 +10°C° 0 mm 3 mps 728 mmHg 31%
    10:00 +12°C° 0 mm 4 mps 728 mmHg 27%
    11:00 +15°C° 0 mm 5 mps 727 mmHg 22%
    12:00 +16°C° 0 mm 5 mps 726 mmHg 22%
    13:00 +17°C° 0 mm 6 mps 725 mmHg 21%
    14:00 +18°C° 0 mm 7 mps 724 mmHg 20%
    15:00 +17°C° 0 mm 6 mps 723 mmHg 22%
    16:00 +16°C° 0 mm 6 mps 723 mmHg 24%
    17:00 +15°C° 0 mm 6 mps 722 mmHg 26%
    18:00 +14°C° 0 mm 6 mps 722 mmHg 29%
    19:00 +13°C° 0 mm 6 mps 722 mmHg 31%
    20:00 +10°C° 0 mm 5 mps 722 mmHg 33%
    21:00 +10°C° 0 mm 5 mps 722 mmHg 35%
    22:00 +9°C° 0 mm 5 mps 722 mmHg 37%
    23:00 +9°C° 0 mm 5 mps 722 mmHg 39%

    Day after tomorrow, 22 July, Sunday

    Time Temperature Precipitation Wind Pressure Humidity
    00:00 +8°C° 0 mm 5 mps 721 mmHg 42%
    01:00 +8°C° 0 mm 5 mps 721 mmHg 45%
    02:00 +8°C° 0 mm 5 mps 721 mmHg 47%
    03:00 +8°C° 0 mm 4 mps 721 mmHg 49%
    04:00 +7°C° 0 mm 4 mps 721 mmHg 51%
    05:00 +8°C° 0 mm 3 mps 721 mmHg 52%
    06:00 +8°C° 0 mm 3 mps 722 mmHg 54%
    07:00 +8°C° 0 mm 2 mps 723 mmHg 55%
    08:00 +7°C° 0 mm 2 mps 724 mmHg 56%
    09:00 +10°C° 0 mm 3 mps 725 mmHg 48%
    10:00 +12°C° 0 mm 5 mps 725 mmHg 40%
    11:00 +14°C° 0 mm 7 mps 726 mmHg 32%
    12:00 +14°C° 0 mm 7 mps 726 mmHg 31%
    13:00 +13°C° 0 mm 8 mps 726 mmHg 31%
    14:00 +15°C° 0 mm 9 mps 726 mmHg 31%
    15:00 +13°C° 0 mm 8 mps 726 mmHg 31%
    16:00 +12°C° 0 mm 7 mps 727 mmHg 31%
    17:00 +11°C° 0 mm 6 mps 727 mmHg 32%
    18:00 +10°C° 0 mm 6 mps 728 mmHg 32%
    19:00 +9°C° 0 mm 5 mps 730 mmHg 32%
    20:00 +8°C° 0 mm 5 mps 731 mmHg 33%
    21:00 +7°C° 0 mm 5 mps 731 mmHg 32%
    22:00 +6°C° 0 mm 4 mps 732 mmHg 31%
    23:00 +6°C° 0 mm 4 mps 733 mmHg 30%

    23 July, Monday

    Time Temperature Precipitation Wind Pressure Humidity
    00:00 +5°C° 0 mm 4 mps 733 mmHg 30%
    01:00 +5°C° 0 mm 4 mps 733 mmHg 30%
    02:00 +5°C° 0 mm 3 mps 734 mmHg 31%
    03:00 +4°C° 0 mm 3 mps 734 mmHg 31%
    04:00 +4°C° 0 mm 3 mps 734 mmHg 32%
    05:00 +4°C° 0 mm 3 mps 734 mmHg 33%
    06:00 +4°C° 0 mm 3 mps 734 mmHg 34%
    07:00 +4°C° 0 mm 3 mps 735 mmHg 35%
    08:00 +4°C° 0 mm 3 mps 735 mmHg 37%
    09:00 +5°C° 0 mm 3 mps 736 mmHg 35%
    10:00 +8°C° 0 mm 3 mps 736 mmHg 33%
    11:00 +9°C° 0 mm 3 mps 736 mmHg 31%
    12:00 +10°C° 0 mm 3 mps 735 mmHg 30%
    13:00 +11°C° 0 mm 3 mps 735 mmHg 29%
    14:00 +11°C° 0 mm 3 mps 734 mmHg 28%
    15:00 +10°C° 0 mm 3 mps 734 mmHg 30%
    16:00 +10°C° 0 mm 2 mps 734 mmHg 32%
    17:00 +9°C° 0 mm 2 mps 734 mmHg 34%
    18:00 +8°C° 0 mm 2 mps 734 mmHg 38%
    19:00 +8°C° 0 mm 1 mps 734 mmHg 42%
    20:00 +6°C° 0 mm 1 mps 735 mmHg 45%
    21:00 +6°C° 0 mm 1 mps 735 mmHg 47%
    22:00 +6°C° 0 mm 1 mps 735 mmHg 49%
    23:00 +5°C° 0 mm 1 mps 735 mmHg 51%

    24 July, Tuesday

    Time Temperature Precipitation Wind Pressure Humidity
    00:00 +5°C° 0 mm 1 mps 735 mmHg 54%
    01:00 +5°C° 0 mm 1 mps 735 mmHg 56%
    02:00 +4°C° 0 mm 1 mps 734 mmHg 59%
    03:00 +4°C° 0 mm 1 mps 734 mmHg 61%
    04:00 +4°C° 0 mm 1 mps 734 mmHg 64%
    05:00 +3°C° 0 mm 1 mps 734 mmHg 67%
    06:00 +3°C° 0 mm 1 mps 734 mmHg 67%
    07:00 +4°C° 0 mm 1 mps 734 mmHg 67%
    08:00 +4°C° 0 mm 1 mps 734 mmHg 67%
    09:00 +5°C° 0 mm 2 mps 734 mmHg 62%
    10:00 +7°C° 0 mm 3 mps 734 mmHg 57%
    11:00 +9°C° 0 mm 3 mps 734 mmHg 52%
    12:00 +9°C° 0 mm 3 mps 734 mmHg 49%
    13:00 +10°C° 0 mm 3 mps 733 mmHg 46%
    14:00 +11°C° 0 mm 3 mps 732 mmHg 43%
    15:00 +11°C° 0 mm 3 mps 732 mmHg 46%
    16:00 +10°C° 0 mm 3 mps 731 mmHg 48%
    17:00 +10°C° 0 mm 3 mps 731 mmHg 51%
    18:00 +8°C° 0 mm 2 mps 732 mmHg 58%
    19:00 +7°C° 0 mm 2 mps 732 mmHg 64%
    20:00 +6°C° 0 mm 2 mps 732 mmHg 70%
    21:00 +5°C° 0 mm 2 mps 732 mmHg 72%
    22:00 +6°C° 0 mm 1 mps 732 mmHg 74%
    23:00 +5°C° 0 mm 1 mps 732 mmHg 76%

    25 July, Wednesday

    Time Temperature Precipitation Wind Pressure Humidity
    00:00 +5°C° 0 mm 1 mps 732 mmHg 77%
    01:00 +5°C° 0 mm 1 mps 732 mmHg 78%
    02:00 +5°C° 0 mm 1 mps 731 mmHg 79%
    03:00 +4°C° 0 mm 1 mps 731 mmHg 79%
    04:00 +4°C° 0 mm 1 mps 731 mmHg 80%
    05:00 +4°C° 0 mm 1 mps 730 mmHg 80%
    06:00 +5°C° 0 mm 1 mps 730 mmHg 79%
    07:00 +5°C° 0 mm 1 mps 731 mmHg 78%
    08:00 +6°C° 0 mm 1 mps 731 mmHg 78%
    09:00 +7°C° 0 mm 2 mps 731 mmHg 72%
    10:00 +9°C° 0 mm 3 mps 731 mmHg 67%
    11:00 +11°C° 0 mm 3 mps 731 mmHg 62%
    12:00 +12°C° 0 mm 3 mps 730 mmHg 61%
    13:00 +13°C° 0 mm 4 mps 729 mmHg 60%
    14:00 +14°C° 0 mm 4 mps 728 mmHg 59%
    15:00 +13°C° 0 mm 3 mps 728 mmHg 63%
    16:00 +12°C° 0 mm 3 mps 727 mmHg 67%
    17:00 +12°C° 0 mm 3 mps 727 mmHg 71%
    18:00 +11°C° 0 mm 3 mps 727 mmHg 76%
    19:00 +10°C° 0 mm 2 mps 728 mmHg 82%
    20:00 +9°C° 0 mm 2 mps 728 mmHg 87%
    21:00 +10°C° 0 mm 1 mps 728 mmHg 88%
    22:00 +9°C° 0 mm 1 mps 728 mmHg 89%
    23:00 +9°C° 0 mm 1 mps 728 mmHg 90%
    Show more